Wenatchee, WA

4:09 PM PDT on September 20, 2019 (GMT -0700)
Pangborn Memorial

Weather History for KEAT - August, 2019

Change the Weather History Date:

Wednesday, August 21, 2019

  Actual Average Record
Temperature  
Mean Temperature 76 °F 72 °F  
Max Temperature 84 °F 85 °F 100 °F (2005)
Min Temperature 67 °F 60 °F 46 °F (1960)
Degree Days  
Heating Degree Days 0 0  
Month to date heating degree days 0 0  
Since 1 June heating degree days 38 65  
Since 1 July heating degree days 0 7  
Cooling Degree Days 11 8  
Month to date cooling degree days 240 205  
Year to date cooling degree days 681 913  
Since 1 June cooling degree days 621 766  
Growing Degree Days 26 (Base 50)    
Moisture  
Dew Point 50 °F    
Average Humidity 39    
Maximum Humidity 57    
Minimum Humidity 20    
Precipitation  
Precipitation T in 0.01 in 0.34 in (1990)
Month to date precipitation 0.50 0.13  
Year to date precipitation 4.73 4.65  
Sea Level Pressure  
Sea Level Pressure 29.84 in    
Wind  
Wind Speed 12 mph (NW)    
Max Wind Speed 21 mph    
Max Gust Speed 25 mph    
Visibility 10 miles    
Events Rain    
T = Trace of Precipitation, MM = Missing Value Source: NWS Daily Summary

Daily Weather History Graph

Daily Weather History Graph

Search for Another Location

Airport or City:

Astronomy

Aug. 21, 2019 Rise Set
Actual Time 6:04 AM PDT 8:02 PM PDT
Civil Twilight 5:31 AM PDT 8:34 PM PDT
Nautical Twilight 4:51 AM PDT 9:15 PM PDT
Astronomical Twilight 4:06 AM PDT 10:00 PM PDT
Moon 10:57 PM PDT (8/21) 12:08 PM PDT (8/21)
Length of Visible Light 15h 03m
Length of Day
13h 57m
Waning Gibbous, 68% of the Moon is Illuminated
Aug 21
Waning Gibbous
Aug 23
Last Quarter
Aug 30
New
Sep 5
First Quarter
Sep 13
Full

Hourly Weather History & Observations

Time (PDT) Temp. Dew Point Humidity Pressure Visibility Wind Dir Wind Speed Gust Speed Precip Events Conditions
12:55 AM 75.9 °F 50.0 °F 40% 29.85 in 10.0 mi WNW 6.9 mph - N/A   Clear
1:55 AM 73.9 °F 51.1 °F 45% 29.85 in 10.0 mi NNW 12.7 mph - N/A   Clear
2:55 AM 73.9 °F 51.1 °F 45% 29.86 in 10.0 mi NNW 8.1 mph - N/A   Clear
3:55 AM 71.1 °F 51.1 °F 49% 29.86 in 10.0 mi NW 11.5 mph - N/A   Clear
4:55 AM 70.0 °F 48.9 °F 47% 29.86 in 10.0 mi NW 11.5 mph - N/A   Clear
5:55 AM 70.0 °F 48.0 °F 46% 29.86 in 10.0 mi NW 15.0 mph - N/A   Clear
6:55 AM 71.1 °F 46.9 °F 42% 29.87 in 10.0 mi NW 10.4 mph - N/A   Clear
7:55 AM 72.0 °F 45.0 °F 38% 29.88 in 10.0 mi Variable 5.8 mph - N/A   Clear
8:55 AM 73.9 °F 44.1 °F 34% 29.88 in 10.0 mi NW 9.2 mph - N/A   Clear
9:55 AM 77.0 °F 42.1 °F 29% 29.87 in 10.0 mi WNW 10.4 mph - N/A   Clear
11:55 AM 84.0 °F 39.9 °F 21% 29.83 in 10.0 mi NW 10.4 mph - N/A   Clear
12:55 PM 80.1 °F 51.1 °F 36% 29.83 in 10.0 mi West 15.0 mph 21.9 mph 0.00 in   Overcast
1:55 PM 82.0 °F 50.0 °F 33% 29.82 in 10.0 mi NW 13.8 mph - N/A   Clear
2:55 PM 82.0 °F 51.1 °F 34% 29.81 in 10.0 mi NW 15.0 mph - N/A   Clear
3:55 PM 80.1 °F 52.0 °F 38% 29.81 in 10.0 mi NW 17.3 mph - N/A   Clear
4:55 PM 75.9 °F 53.1 °F 45% 29.82 in 10.0 mi NW 16.1 mph - N/A   Mostly Cloudy
5:55 PM 73.9 °F 54.0 °F 50% 29.83 in 10.0 mi NW 11.5 mph - 0.00 in Rain Light Rain
6:55 PM 75.0 °F 53.1 °F 46% 29.83 in 10.0 mi NNW 8.1 mph - 0.00 in   Clear
7:55 PM 73.0 °F 53.1 °F 49% 29.84 in 10.0 mi WNW 8.1 mph - N/A   Partly Cloudy
8:55 PM 71.1 °F 53.1 °F 53% 29.84 in 10.0 mi NW 9.2 mph - N/A   Clear
9:55 PM 69.1 °F 53.1 °F 57% 29.84 in 10.0 mi NNW 9.2 mph - N/A   Clear
10:55 PM 69.1 °F 53.1 °F 57% 29.83 in 10.0 mi NW 15.0 mph - N/A   Scattered Clouds
11:55 PM 68.0 °F 52.0 °F 56% 29.82 in 10.0 mi NW 13.8 mph - N/A   Clear